Year,Month,Day,Hour,Minute,Value (Times are PST for temperature in C)
2012,07,03,00,00,11.20
2012,07,03,00,01,11.20
2012,07,03,00,02,11.20
2012,07,03,00,03,11.20
2012,07,03,00,04,11.20
2012,07,03,00,05,11.20
2012,07,03,00,06,11.20
2012,07,03,00,07,11.20
2012,07,03,00,08,11.20
2012,07,03,00,09,11.20
2012,07,03,00,10,11.20
2012,07,03,00,11,11.20
2012,07,03,00,12,11.20
2012,07,03,00,13,11.10
2012,07,03,00,14,11.10
2012,07,03,00,15,11.10
2012,07,03,00,16,11.10
2012,07,03,00,17,11.10
2012,07,03,00,18,11.00
2012,07,03,00,19,11.00
2012,07,03,00,20,11.00
2012,07,03,00,21,10.90
2012,07,03,00,22,10.90
2012,07,03,00,23,10.90
2012,07,03,00,24,10.90
2012,07,03,00,25,10.90
2012,07,03,00,26,10.90
2012,07,03,00,27,10.90
2012,07,03,00,28,10.90
2012,07,03,00,29,10.90
2012,07,03,00,30,10.90
2012,07,03,00,31,10.90
2012,07,03,00,32,10.90
2012,07,03,00,33,10.90
2012,07,03,00,34,10.90
2012,07,03,00,35,10.90
2012,07,03,00,36,10.90
2012,07,03,00,37,10.90
2012,07,03,00,38,10.80
2012,07,03,00,39,10.80
2012,07,03,00,40,10.80
2012,07,03,00,41,10.80
2012,07,03,00,42,10.80
2012,07,03,00,43,10.80
2012,07,03,00,44,10.80
2012,07,03,00,45,10.80
2012,07,03,00,46,10.80
2012,07,03,00,47,10.80
2012,07,03,00,48,10.80
2012,07,03,00,49,10.80
2012,07,03,00,50,10.80
2012,07,03,00,51,10.80
2012,07,03,00,52,10.80
2012,07,03,00,53,10.80
2012,07,03,00,54,10.80
2012,07,03,00,55,10.80
2012,07,03,00,56,10.80
2012,07,03,00,57,10.80
2012,07,03,00,58,10.80
2012,07,03,00,59,10.80
2012,07,03,01,00,10.80
2012,07,03,01,01,10.80
2012,07,03,01,02,10.80
2012,07,03,01,03,10.80
2012,07,03,01,04,10.80
2012,07,03,01,05,10.80
2012,07,03,01,06,10.80
2012,07,03,01,07,10.80
2012,07,03,01,08,10.80
2012,07,03,01,09,10.80
2012,07,03,01,10,10.80
2012,07,03,01,11,10.80
2012,07,03,01,12,10.80
2012,07,03,01,13,10.80
2012,07,03,01,14,10.80
2012,07,03,01,15,10.80
2012,07,03,01,16,10.80
2012,07,03,01,17,10.80
2012,07,03,01,18,10.80
2012,07,03,01,19,10.80
2012,07,03,01,20,10.80
2012,07,03,01,21,10.80
2012,07,03,01,22,10.80
2012,07,03,01,23,10.80
2012,07,03,01,24,10.80
2012,07,03,01,25,10.80
2012,07,03,01,26,10.80
2012,07,03,01,27,10.80
2012,07,03,01,28,10.80
2012,07,03,01,29,10.80
2012,07,03,01,30,10.80
2012,07,03,01,31,10.80
2012,07,03,01,32,10.80
2012,07,03,01,33,10.80
2012,07,03,01,34,10.80
2012,07,03,01,35,10.80
2012,07,03,01,36,10.80
2012,07,03,01,37,10.80
2012,07,03,01,38,10.80
2012,07,03,01,39,10.80
2012,07,03,01,40,10.80
2012,07,03,01,41,10.80
2012,07,03,01,42,10.80
2012,07,03,01,43,10.80
2012,07,03,01,44,10.80
2012,07,03,01,45,10.80
2012,07,03,01,46,10.80
2012,07,03,01,47,10.80
2012,07,03,01,48,10.80
2012,07,03,01,49,10.80
2012,07,03,01,50,10.80
2012,07,03,01,51,10.80
2012,07,03,01,52,10.80
2012,07,03,01,53,10.80
2012,07,03,01,54,10.70
2012,07,03,01,55,10.70
2012,07,03,01,56,10.70
2012,07,03,01,57,10.70
2012,07,03,01,58,10.70
2012,07,03,01,59,10.80
2012,07,03,02,00,10.80
2012,07,03,02,01,10.80
2012,07,03,02,02,10.80
2012,07,03,02,03,10.80
2012,07,03,02,04,10.80
2012,07,03,02,05,10.80
2012,07,03,02,06,10.80
2012,07,03,02,07,10.80
2012,07,03,02,08,10.80
2012,07,03,02,09,10.80
2012,07,03,02,10,10.80
2012,07,03,02,11,10.80
2012,07,03,02,12,10.80
2012,07,03,02,13,10.80
2012,07,03,02,14,10.80
2012,07,03,02,15,10.80
2012,07,03,02,16,10.80
2012,07,03,02,17,10.80
2012,07,03,02,18,10.70
2012,07,03,02,19,10.70
2012,07,03,02,20,10.70
2012,07,03,02,21,10.70
2012,07,03,02,22,10.70
2012,07,03,02,23,10.70
2012,07,03,02,24,10.70
2012,07,03,02,25,10.70
2012,07,03,02,26,10.70
2012,07,03,02,27,10.70
2012,07,03,02,28,10.70
2012,07,03,02,29,10.70
2012,07,03,02,30,10.70
2012,07,03,02,31,10.70
2012,07,03,02,32,10.70
2012,07,03,02,33,10.70
2012,07,03,02,34,10.70
2012,07,03,02,35,10.70
2012,07,03,02,36,10.70
2012,07,03,02,37,10.70
2012,07,03,02,38,10.70
2012,07,03,02,39,10.70
2012,07,03,02,40,10.70
2012,07,03,02,41,10.70
2012,07,03,02,42,10.70
2012,07,03,02,43,10.80
2012,07,03,02,44,10.80
2012,07,03,02,45,10.80
2012,07,03,02,46,10.80
2012,07,03,02,47,10.80
2012,07,03,02,48,10.80
2012,07,03,02,49,10.80
2012,07,03,02,50,10.80
2012,07,03,02,51,10.80
2012,07,03,02,52,10.80
2012,07,03,02,53,10.80
2012,07,03,02,54,10.80
2012,07,03,02,55,10.80
2012,07,03,02,56,10.80
2012,07,03,02,57,10.80
2012,07,03,02,58,10.80
2012,07,03,02,59,10.80
2012,07,03,03,00,10.70
2012,07,03,03,01,10.70
2012,07,03,03,02,10.70
2012,07,03,03,03,10.70
2012,07,03,03,04,10.70
2012,07,03,03,05,10.70
2012,07,03,03,06,10.70
2012,07,03,03,07,10.70
2012,07,03,03,08,10.70
2012,07,03,03,09,10.70
2012,07,03,03,10,10.70
2012,07,03,03,11,10.70
2012,07,03,03,12,10.70
2012,07,03,03,13,10.70
2012,07,03,03,14,10.70
2012,07,03,03,15,10.80
2012,07,03,03,16,10.80
2012,07,03,03,17,10.80
2012,07,03,03,18,10.80
2012,07,03,03,19,10.80
2012,07,03,03,20,10.80
2012,07,03,03,21,10.80
2012,07,03,03,22,10.80
2012,07,03,03,23,10.80
2012,07,03,03,24,10.80
2012,07,03,03,25,10.80
2012,07,03,03,26,10.80
2012,07,03,03,27,10.80
2012,07,03,03,28,10.80
2012,07,03,03,29,10.80
2012,07,03,03,30,10.80
2012,07,03,03,31,10.80
2012,07,03,03,32,10.80
2012,07,03,03,33,10.80
2012,07,03,03,34,10.90
2012,07,03,03,35,10.90
2012,07,03,03,36,10.90
2012,07,03,03,37,10.90
2012,07,03,03,38,10.80
2012,07,03,03,39,10.90
2012,07,03,03,40,10.80
2012,07,03,03,41,10.80
2012,07,03,03,42,10.80
2012,07,03,03,43,10.80
2012,07,03,03,44,10.80
2012,07,03,03,45,10.80
2012,07,03,03,46,10.80
2012,07,03,03,47,10.80
2012,07,03,03,48,10.80
2012,07,03,03,49,10.90
2012,07,03,03,50,10.90
2012,07,03,03,51,10.90
2012,07,03,03,52,10.90
2012,07,03,03,53,10.90
2012,07,03,03,54,10.90
2012,07,03,03,55,10.80
2012,07,03,03,56,10.80
2012,07,03,03,57,10.80
2012,07,03,03,58,10.80
2012,07,03,03,59,10.80
2012,07,03,04,00,10.80
2012,07,03,04,01,10.80
2012,07,03,04,02,10.80
2012,07,03,04,03,10.80
2012,07,03,04,04,10.80
2012,07,03,04,05,10.90
2012,07,03,04,06,10.90
2012,07,03,04,07,10.90
2012,07,03,04,08,10.90
2012,07,03,04,09,10.90
2012,07,03,04,10,10.90
2012,07,03,04,11,10.90
2012,07,03,04,12,10.90
2012,07,03,04,13,10.90
2012,07,03,04,14,10.90
2012,07,03,04,15,10.90
2012,07,03,04,16,11.00
2012,07,03,04,17,11.00
2012,07,03,04,18,11.10
2012,07,03,04,19,11.10
2012,07,03,04,20,11.10
2012,07,03,04,21,11.00
2012,07,03,04,22,11.00
2012,07,03,04,23,11.00
2012,07,03,04,24,11.00
2012,07,03,04,25,10.90
2012,07,03,04,26,10.90
2012,07,03,04,27,10.90
2012,07,03,04,28,10.90
2012,07,03,04,29,10.90
2012,07,03,04,30,10.90
2012,07,03,04,31,10.90
2012,07,03,04,32,10.80
2012,07,03,04,33,10.80
2012,07,03,04,34,10.80
2012,07,03,04,35,10.80
2012,07,03,04,36,10.80
2012,07,03,04,37,10.80
2012,07,03,04,38,10.80
2012,07,03,04,39,10.80
2012,07,03,04,40,10.80
2012,07,03,04,41,10.80
2012,07,03,04,42,10.80
2012,07,03,04,43,10.80
2012,07,03,04,44,10.90
2012,07,03,04,45,10.90
2012,07,03,04,46,10.90
2012,07,03,04,47,10.90
2012,07,03,04,48,10.90
2012,07,03,04,49,10.90
2012,07,03,04,50,10.90
2012,07,03,04,51,10.80
2012,07,03,04,52,10.80
2012,07,03,04,53,10.80
2012,07,03,04,54,10.80
2012,07,03,04,55,10.80
2012,07,03,04,56,10.80
2012,07,03,04,57,10.80
2012,07,03,04,58,10.70
2012,07,03,04,59,10.70
2012,07,03,05,00,10.70
2012,07,03,05,01,10.70
2012,07,03,05,02,10.70
2012,07,03,05,03,10.70
2012,07,03,05,04,10.80
2012,07,03,05,05,10.80
2012,07,03,05,06,10.70
2012,07,03,05,07,10.70
2012,07,03,05,08,10.70
2012,07,03,05,09,10.70
2012,07,03,05,10,10.70
2012,07,03,05,11,10.70
2012,07,03,05,12,10.70
2012,07,03,05,13,10.70
2012,07,03,05,14,10.70
2012,07,03,05,15,10.70
2012,07,03,05,16,10.70
2012,07,03,05,17,10.70
2012,07,03,05,18,10.70
2012,07,03,05,19,10.60
2012,07,03,05,20,10.60
2012,07,03,05,21,10.60
2012,07,03,05,22,10.60
2012,07,03,05,23,10.60
2012,07,03,05,24,10.60
2012,07,03,05,25,10.60
2012,07,03,05,26,10.60
2012,07,03,05,27,10.60
2012,07,03,05,28,10.60
2012,07,03,05,29,10.60
2012,07,03,05,30,10.60
2012,07,03,05,31,10.50
2012,07,03,05,32,10.50
2012,07,03,05,33,10.50
2012,07,03,05,34,10.40
2012,07,03,05,35,10.40
2012,07,03,05,36,10.40
2012,07,03,05,37,10.30
2012,07,03,05,38,10.30
2012,07,03,05,39,10.30
2012,07,03,05,40,10.30
2012,07,03,05,41,10.30
2012,07,03,05,42,10.30
2012,07,03,05,43,10.30
2012,07,03,05,44,10.30
2012,07,03,05,45,10.30
2012,07,03,05,46,10.30
2012,07,03,05,47,10.30
2012,07,03,05,48,10.30
2012,07,03,05,49,10.30
2012,07,03,05,50,10.30
2012,07,03,05,51,10.30
2012,07,03,05,52,10.30
2012,07,03,05,53,10.30
2012,07,03,05,54,10.30
2012,07,03,05,55,10.30
2012,07,03,05,56,10.30
2012,07,03,05,57,10.30
2012,07,03,05,58,10.40
2012,07,03,05,59,10.40
2012,07,03,06,00,10.40
2012,07,03,06,01,10.40
2012,07,03,06,02,10.40
2012,07,03,06,03,10.40
2012,07,03,06,04,10.40
2012,07,03,06,05,10.50
2012,07,03,06,06,10.40
2012,07,03,06,07,10.40
2012,07,03,06,08,10.40
2012,07,03,06,09,10.40
2012,07,03,06,10,10.30
2012,07,03,06,11,10.30
2012,07,03,06,12,10.30
2012,07,03,06,13,10.30
2012,07,03,06,14,10.30
2012,07,03,06,15,10.30
2012,07,03,06,16,10.20
2012,07,03,06,17,10.20
2012,07,03,06,18,10.20
2012,07,03,06,19,10.20
2012,07,03,06,20,10.20
2012,07,03,06,21,10.20
2012,07,03,06,22,10.20
2012,07,03,06,23,10.20
2012,07,03,06,24,10.20
2012,07,03,06,25,10.20
2012,07,03,06,26,10.20
2012,07,03,06,27,10.20
2012,07,03,06,28,10.20
2012,07,03,06,29,10.20
2012,07,03,06,30,10.20
2012,07,03,06,31,10.20
2012,07,03,06,32,10.20
2012,07,03,06,33,10.20
2012,07,03,06,34,10.20
2012,07,03,06,35,10.20
2012,07,03,06,36,10.20
2012,07,03,06,37,10.20
2012,07,03,06,38,10.20
2012,07,03,06,39,10.20
2012,07,03,06,40,10.20
2012,07,03,06,41,10.20
2012,07,03,06,42,10.20
2012,07,03,06,43,10.20
2012,07,03,06,44,10.20
2012,07,03,06,45,10.30
2012,07,03,06,46,10.30
2012,07,03,06,47,10.30
2012,07,03,06,48,10.30
2012,07,03,06,49,10.30
2012,07,03,06,50,10.30
2012,07,03,06,51,10.30
2012,07,03,06,52,10.30
2012,07,03,06,53,10.30
2012,07,03,06,54,10.30
2012,07,03,06,55,10.30
2012,07,03,06,56,10.30
2012,07,03,06,57,10.30
2012,07,03,06,58,10.30
2012,07,03,06,59,10.30
2012,07,03,07,00,10.30
2012,07,03,07,01,10.30
2012,07,03,07,02,10.30
2012,07,03,07,03,10.30
2012,07,03,07,04,10.30
2012,07,03,07,05,10.30
2012,07,03,07,06,10.30
2012,07,03,07,07,10.30
2012,07,03,07,08,10.30
2012,07,03,07,09,10.30
2012,07,03,07,10,10.40
2012,07,03,07,11,10.40
2012,07,03,07,12,10.40
2012,07,03,07,13,10.50
2012,07,03,07,14,10.50
2012,07,03,07,15,10.50
2012,07,03,07,16,10.60
2012,07,03,07,17,10.60
2012,07,03,07,18,10.60
2012,07,03,07,19,10.70
2012,07,03,07,20,10.70
2012,07,03,07,21,10.70
2012,07,03,07,22,10.60
2012,07,03,07,23,10.60
2012,07,03,07,24,10.60
2012,07,03,07,25,10.60
2012,07,03,07,26,10.70
2012,07,03,07,27,10.70
2012,07,03,07,28,10.70
2012,07,03,07,29,10.70
2012,07,03,07,30,10.70
2012,07,03,07,31,10.70
2012,07,03,07,32,10.70
2012,07,03,07,33,10.70
2012,07,03,07,34,10.70
2012,07,03,07,35,10.70
2012,07,03,07,36,10.70
2012,07,03,07,37,10.70
2012,07,03,07,38,10.70
2012,07,03,07,39,10.70
2012,07,03,07,40,10.70
2012,07,03,07,41,10.70
2012,07,03,07,42,10.70
2012,07,03,07,43,10.70
2012,07,03,07,44,10.70
2012,07,03,07,45,10.70
2012,07,03,07,46,10.70
2012,07,03,07,47,10.70
2012,07,03,07,48,10.70
2012,07,03,07,49,10.70
2012,07,03,07,50,10.70
2012,07,03,07,51,10.70
2012,07,03,07,52,10.70
2012,07,03,07,53,10.70
2012,07,03,07,54,10.70
2012,07,03,07,55,10.70
2012,07,03,07,56,10.70
2012,07,03,07,57,10.70
2012,07,03,07,58,10.70
2012,07,03,07,59,10.70
2012,07,03,08,00,10.70
2012,07,03,08,01,10.70
2012,07,03,08,02,10.70
2012,07,03,08,03,10.70
2012,07,03,08,04,10.70
2012,07,03,08,05,10.70
2012,07,03,08,06,10.70
2012,07,03,08,07,10.70
2012,07,03,08,08,10.70
2012,07,03,08,09,10.70
2012,07,03,08,10,10.70
2012,07,03,08,11,10.70
2012,07,03,08,12,10.60
2012,07,03,08,13,10.60
2012,07,03,08,14,10.70
2012,07,03,08,15,10.70
2012,07,03,08,16,10.70
2012,07,03,08,17,10.70
2012,07,03,08,18,10.70
2012,07,03,08,19,10.80
2012,07,03,08,20,10.80
2012,07,03,08,21,10.80
2012,07,03,08,22,10.80
2012,07,03,08,23,10.80
2012,07,03,08,24,10.80
2012,07,03,08,25,10.80
2012,07,03,08,26,10.80
2012,07,03,08,27,10.80
2012,07,03,08,28,10.80
2012,07,03,08,29,10.80
2012,07,03,08,30,10.80
2012,07,03,08,31,10.80
2012,07,03,08,32,10.80
2012,07,03,08,33,10.80
2012,07,03,08,34,10.80
2012,07,03,08,35,10.80
2012,07,03,08,36,10.80
2012,07,03,08,37,10.80
2012,07,03,08,38,10.80
2012,07,03,08,39,10.80
2012,07,03,08,40,10.80
2012,07,03,08,41,10.80
2012,07,03,08,42,10.80
2012,07,03,08,43,10.80
2012,07,03,08,44,10.80
2012,07,03,08,45,10.80
2012,07,03,08,46,10.80
2012,07,03,08,47,10.80
2012,07,03,08,48,10.80
2012,07,03,08,49,10.80
2012,07,03,08,50,10.80
2012,07,03,08,51,10.80
2012,07,03,08,52,10.80
2012,07,03,08,53,10.80
2012,07,03,08,54,10.80
2012,07,03,08,55,10.80
2012,07,03,08,56,10.80
2012,07,03,08,57,10.80
2012,07,03,08,58,10.80
2012,07,03,08,59,10.90
2012,07,03,09,00,10.90
2012,07,03,09,01,10.90
2012,07,03,09,02,11.00
2012,07,03,09,03,11.00
2012,07,03,09,04,11.00
2012,07,03,09,05,11.00
2012,07,03,09,06,11.10
2012,07,03,09,07,11.10
2012,07,03,09,08,11.10
2012,07,03,09,09,11.10
2012,07,03,09,10,11.10
2012,07,03,09,11,11.10
2012,07,03,09,12,11.10
2012,07,03,09,13,11.10
2012,07,03,09,14,11.10
2012,07,03,09,15,11.10
2012,07,03,09,16,11.20
2012,07,03,09,17,11.20
2012,07,03,09,18,11.20
2012,07,03,09,19,11.20
2012,07,03,09,20,11.20
2012,07,03,09,21,11.20
2012,07,03,09,22,11.20
2012,07,03,09,23,11.20
2012,07,03,09,24,11.20
2012,07,03,09,25,11.20
2012,07,03,09,26,11.20
2012,07,03,09,27,11.20
2012,07,03,09,28,11.30
2012,07,03,09,29,11.30
2012,07,03,09,30,11.30
2012,07,03,09,31,11.30
2012,07,03,09,32,11.30
2012,07,03,09,33,11.30
2012,07,03,09,34,11.30
2012,07,03,09,35,11.30
2012,07,03,09,36,11.30
2012,07,03,09,37,11.40
2012,07,03,09,38,11.40
2012,07,03,09,39,11.40
2012,07,03,09,40,11.40
2012,07,03,09,41,11.40
2012,07,03,09,42,11.40
2012,07,03,09,43,11.40
2012,07,03,09,44,11.40
2012,07,03,09,45,11.40
2012,07,03,09,46,11.40
2012,07,03,09,47,11.40
2012,07,03,09,48,11.40
2012,07,03,09,49,11.40
2012,07,03,09,50,11.40
2012,07,03,09,51,11.50
2012,07,03,09,52,11.60
2012,07,03,09,53,11.60
2012,07,03,09,54,11.60
2012,07,03,09,55,11.70
2012,07,03,09,56,11.70
2012,07,03,09,57,11.70
2012,07,03,09,58,11.70
2012,07,03,09,59,11.80
2012,07,03,10,00,11.80
2012,07,03,10,01,11.80
2012,07,03,10,02,11.80
2012,07,03,10,03,11.90
2012,07,03,10,04,11.90
2012,07,03,10,05,11.90
2012,07,03,10,06,12.00
2012,07,03,10,07,12.00
2012,07,03,10,08,12.10
2012,07,03,10,09,12.10
2012,07,03,10,10,12.20
2012,07,03,10,11,12.20
2012,07,03,10,12,12.20
2012,07,03,10,13,12.20
2012,07,03,10,14,12.30
2012,07,03,10,15,12.30
2012,07,03,10,16,12.30
2012,07,03,10,17,12.30
2012,07,03,10,18,12.30
2012,07,03,10,19,12.30
2012,07,03,10,20,12.30
2012,07,03,10,21,12.30
2012,07,03,10,22,12.30
2012,07,03,10,23,12.30
2012,07,03,10,24,12.30
2012,07,03,10,25,12.30
2012,07,03,10,26,12.30
2012,07,03,10,27,12.30
2012,07,03,10,28,12.30
2012,07,03,10,29,12.30
2012,07,03,10,30,12.40
2012,07,03,10,31,12.40
2012,07,03,10,32,12.40
2012,07,03,10,33,12.40
2012,07,03,10,34,12.40
2012,07,03,10,35,12.50
2012,07,03,10,36,12.50
2012,07,03,10,37,12.50
2012,07,03,10,38,12.60
2012,07,03,10,39,12.60
2012,07,03,10,40,12.60
2012,07,03,10,41,12.60
2012,07,03,10,42,12.60
2012,07,03,10,43,12.60
2012,07,03,10,44,12.70
2012,07,03,10,45,12.70
2012,07,03,10,46,12.70
2012,07,03,10,47,12.70
2012,07,03,10,48,12.70
2012,07,03,10,49,12.70
2012,07,03,10,50,12.80
2012,07,03,10,51,12.80
2012,07,03,10,52,12.80
2012,07,03,10,53,12.90
2012,07,03,10,54,12.90
2012,07,03,10,55,12.80
2012,07,03,10,56,12.80
2012,07,03,10,57,12.80
2012,07,03,10,58,12.90
2012,07,03,10,59,12.90
2012,07,03,11,00,13.00
2012,07,03,11,01,13.10
2012,07,03,11,02,13.10
2012,07,03,11,03,13.10
2012,07,03,11,04,13.20
2012,07,03,11,05,13.20
2012,07,03,11,06,13.20
2012,07,03,11,07,13.20
2012,07,03,11,08,13.30
2012,07,03,11,09,13.30
2012,07,03,11,10,13.40
2012,07,03,11,11,13.40
2012,07,03,11,12,13.50
2012,07,03,11,13,13.60
2012,07,03,11,14,13.70
2012,07,03,11,15,13.80
2012,07,03,11,16,13.80
2012,07,03,11,17,13.90
2012,07,03,11,18,14.00
2012,07,03,11,19,14.10
2012,07,03,11,20,14.20
2012,07,03,11,21,14.20
2012,07,03,11,22,14.30
2012,07,03,11,23,14.30
2012,07,03,11,24,14.30
2012,07,03,11,25,14.30
2012,07,03,11,26,14.30
2012,07,03,11,27,14.30
2012,07,03,11,28,14.30
2012,07,03,11,29,14.30
2012,07,03,11,30,14.30
2012,07,03,11,31,14.30
2012,07,03,11,32,14.30
2012,07,03,11,33,14.30
2012,07,03,11,34,14.30
2012,07,03,11,35,14.30
2012,07,03,11,36,14.30
2012,07,03,11,37,14.30
2012,07,03,11,38,14.20
2012,07,03,11,39,14.20
2012,07,03,11,40,14.20
2012,07,03,11,41,14.20
2012,07,03,11,42,14.30
2012,07,03,11,43,14.30
2012,07,03,11,44,14.40
2012,07,03,11,45,14.40
2012,07,03,11,46,14.40
2012,07,03,11,47,14.50
2012,07,03,11,48,14.50
2012,07,03,11,49,14.60
2012,07,03,11,50,14.70
2012,07,03,11,51,14.80
2012,07,03,11,52,14.90
2012,07,03,11,53,15.00
2012,07,03,11,54,15.00
2012,07,03,11,55,15.00
2012,07,03,11,56,15.10
2012,07,03,11,57,15.10
2012,07,03,11,58,15.10
2012,07,03,11,59,15.10
2012,07,03,12,00,15.10
2012,07,03,12,01,15.10
2012,07,03,12,02,15.10
2012,07,03,12,03,15.00
2012,07,03,12,04,15.00
2012,07,03,12,05,15.00
2012,07,03,12,06,15.00
2012,07,03,12,07,15.00
2012,07,03,12,08,15.00
2012,07,03,12,09,15.00
2012,07,03,12,10,15.00
2012,07,03,12,11,15.00
2012,07,03,12,12,15.00
2012,07,03,12,13,15.00
2012,07,03,12,14,15.00
2012,07,03,12,15,15.00
2012,07,03,12,16,15.00
2012,07,03,12,17,15.00
2012,07,03,12,18,15.00
2012,07,03,12,19,15.00
2012,07,03,12,20,15.00
2012,07,03,12,21,15.00
2012,07,03,12,22,15.00
2012,07,03,12,23,15.00
2012,07,03,12,24,15.00
2012,07,03,12,25,14.90
2012,07,03,12,26,14.90
2012,07,03,12,27,14.90
2012,07,03,12,28,14.80
2012,07,03,12,29,14.80
2012,07,03,12,30,14.90
2012,07,03,12,31,14.90
2012,07,03,12,32,15.00
2012,07,03,12,33,15.00
2012,07,03,12,34,15.00
2012,07,03,12,35,15.00
2012,07,03,12,36,15.00
2012,07,03,12,37,15.00
2012,07,03,12,38,15.00
2012,07,03,12,39,15.00
2012,07,03,12,40,15.00
2012,07,03,12,41,14.90
2012,07,03,12,42,15.00
2012,07,03,12,43,15.00
2012,07,03,12,44,14.90
2012,07,03,12,45,15.00
2012,07,03,12,46,15.00
2012,07,03,12,47,15.00
2012,07,03,12,48,15.00
2012,07,03,12,49,15.00
2012,07,03,12,50,15.00
2012,07,03,12,51,15.00
2012,07,03,12,52,15.00
2012,07,03,12,53,14.90
2012,07,03,12,54,14.90
2012,07,03,12,55,14.90
2012,07,03,12,56,15.00
2012,07,03,12,57,15.00
2012,07,03,12,58,15.00
2012,07,03,12,59,15.00
2012,07,03,13,00,15.00
2012,07,03,13,01,15.00
2012,07,03,13,02,15.00
2012,07,03,13,03,15.00
2012,07,03,13,04,15.00
2012,07,03,13,05,15.00
2012,07,03,13,06,15.00
2012,07,03,13,07,15.00
2012,07,03,13,08,15.00
2012,07,03,13,09,15.10
2012,07,03,13,10,15.20
2012,07,03,13,11,15.20
2012,07,03,13,12,15.30
2012,07,03,13,13,15.30
2012,07,03,13,14,15.30
2012,07,03,13,15,15.30
2012,07,03,13,16,15.30
2012,07,03,13,17,15.30
2012,07,03,13,18,15.30
2012,07,03,13,19,15.30
2012,07,03,13,20,15.20
2012,07,03,13,21,15.20
2012,07,03,13,22,15.20
2012,07,03,13,23,15.20
2012,07,03,13,24,15.10
2012,07,03,13,25,15.10
2012,07,03,13,26,15.10
2012,07,03,13,27,15.10
2012,07,03,13,28,15.10
2012,07,03,13,29,15.10
2012,07,03,13,30,15.00
2012,07,03,13,31,15.00
2012,07,03,13,32,15.00
2012,07,03,13,33,15.10
2012,07,03,13,34,15.00
2012,07,03,13,35,15.00
2012,07,03,13,36,15.00
2012,07,03,13,37,15.00
2012,07,03,13,38,15.00
2012,07,03,13,39,15.00
2012,07,03,13,40,15.00
2012,07,03,13,41,15.00
2012,07,03,13,42,15.00
2012,07,03,13,43,15.00
2012,07,03,13,44,15.00
2012,07,03,13,45,15.00
2012,07,03,13,46,15.00
2012,07,03,13,47,15.00
2012,07,03,13,48,15.00
2012,07,03,13,49,15.00
2012,07,03,13,50,15.00
2012,07,03,13,51,15.00
2012,07,03,13,52,15.00
2012,07,03,13,53,15.00
2012,07,03,13,54,15.00
2012,07,03,13,55,15.10
2012,07,03,13,56,15.20
2012,07,03,13,57,15.20
2012,07,03,13,58,15.30
2012,07,03,13,59,15.30
2012,07,03,14,00,15.40
2012,07,03,14,01,15.50
2012,07,03,14,02,15.50
2012,07,03,14,03,15.60
2012,07,03,14,04,15.60
2012,07,03,14,05,15.60
2012,07,03,14,06,15.60
2012,07,03,14,07,15.70
2012,07,03,14,08,15.60
2012,07,03,14,09,15.60
2012,07,03,14,10,15.50
2012,07,03,14,11,15.50
2012,07,03,14,12,15.40
2012,07,03,14,13,15.40
2012,07,03,14,14,15.40
2012,07,03,14,15,15.40
2012,07,03,14,16,15.30
2012,07,03,14,17,15.30
2012,07,03,14,18,15.30
2012,07,03,14,19,15.20
2012,07,03,14,20,15.10
2012,07,03,14,21,15.10
2012,07,03,14,22,15.10
2012,07,03,14,23,15.00
2012,07,03,14,24,15.00
2012,07,03,14,25,15.00
2012,07,03,14,26,15.00
2012,07,03,14,27,15.00
2012,07,03,14,28,15.00
2012,07,03,14,29,15.00
2012,07,03,14,30,15.00
2012,07,03,14,31,15.00
2012,07,03,14,32,15.00
2012,07,03,14,33,15.00
2012,07,03,14,34,15.00
2012,07,03,14,35,15.00
2012,07,03,14,36,15.00
2012,07,03,14,37,15.00
2012,07,03,14,38,15.00
2012,07,03,14,39,15.00
2012,07,03,14,40,15.00
2012,07,03,14,41,15.00
2012,07,03,14,42,15.00
2012,07,03,14,43,15.00
2012,07,03,14,44,15.00
2012,07,03,14,45,15.00
2012,07,03,14,46,15.00
2012,07,03,14,47,15.00
2012,07,03,14,48,15.00
2012,07,03,14,49,15.00
2012,07,03,14,50,15.00
2012,07,03,14,51,15.00
2012,07,03,14,52,15.00
2012,07,03,14,53,15.00
2012,07,03,14,54,15.00
2012,07,03,14,55,15.00
2012,07,03,14,56,15.00
2012,07,03,14,57,15.00
2012,07,03,14,58,15.00
2012,07,03,14,59,15.00
2012,07,03,15,00,15.00
2012,07,03,15,01,15.00
2012,07,03,15,02,15.10
2012,07,03,15,03,15.30
2012,07,03,15,04,15.40
2012,07,03,15,05,15.50
2012,07,03,15,06,15.60
2012,07,03,15,07,15.60
2012,07,03,15,08,15.70
2012,07,03,15,09,15.70
2012,07,03,15,10,15.80
2012,07,03,15,11,15.80
2012,07,03,15,12,15.90
2012,07,03,15,13,15.90
2012,07,03,15,14,16.00
2012,07,03,15,15,16.00
2012,07,03,15,16,16.00
2012,07,03,15,17,16.00
2012,07,03,15,18,15.90
2012,07,03,15,19,15.90
2012,07,03,15,20,15.90
2012,07,03,15,21,15.90
2012,07,03,15,22,15.90
2012,07,03,15,23,15.90
2012,07,03,15,24,15.90
2012,07,03,15,25,15.90
2012,07,03,15,26,15.90
2012,07,03,15,27,15.90
2012,07,03,15,28,15.90
2012,07,03,15,29,15.90
2012,07,03,15,30,15.90
2012,07,03,15,31,15.90
2012,07,03,15,32,15.90
2012,07,03,15,33,16.00
2012,07,03,15,34,16.00
2012,07,03,15,35,16.10
2012,07,03,15,36,16.10
2012,07,03,15,37,16.20
2012,07,03,15,38,16.20
2012,07,03,15,39,16.20
2012,07,03,15,40,16.20
2012,07,03,15,41,16.20
2012,07,03,15,42,16.10
2012,07,03,15,43,16.10
2012,07,03,15,44,16.00
2012,07,03,15,45,15.90
2012,07,03,15,46,15.80
2012,07,03,15,47,15.70
2012,07,03,15,48,15.70
2012,07,03,15,49,15.60
2012,07,03,15,50,15.50
2012,07,03,15,51,15.40
2012,07,03,15,52,15.40
2012,07,03,15,53,15.30
2012,07,03,15,54,15.30
2012,07,03,15,55,15.20
2012,07,03,15,56,15.20
2012,07,03,15,57,15.10
2012,07,03,15,58,15.10
2012,07,03,15,59,15.10
2012,07,03,16,00,15.20
2012,07,03,16,01,15.30
2012,07,03,16,02,15.40
2012,07,03,16,03,15.40
2012,07,03,16,04,15.50
2012,07,03,16,05,15.50
2012,07,03,16,06,15.50
2012,07,03,16,07,15.40
2012,07,03,16,08,15.40
2012,07,03,16,09,15.30
2012,07,03,16,10,15.30
2012,07,03,16,11,15.30
2012,07,03,16,12,15.30
2012,07,03,16,13,15.20
2012,07,03,16,14,15.10
2012,07,03,16,15,15.00
2012,07,03,16,16,15.00
2012,07,03,16,17,15.00
2012,07,03,16,18,15.00
2012,07,03,16,19,15.00
2012,07,03,16,20,15.00
2012,07,03,16,21,14.90
2012,07,03,16,22,14.80
2012,07,03,16,23,14.80
2012,07,03,16,24,14.70
2012,07,03,16,25,14.60
2012,07,03,16,26,14.60
2012,07,03,16,27,14.60
2012,07,03,16,28,14.50
2012,07,03,16,29,14.50
2012,07,03,16,30,14.50
2012,07,03,16,31,14.50
2012,07,03,16,32,14.40
2012,07,03,16,33,14.40
2012,07,03,16,34,14.30
2012,07,03,16,35,14.30
2012,07,03,16,36,14.30
2012,07,03,16,37,14.30
2012,07,03,16,38,14.30
2012,07,03,16,39,14.30
2012,07,03,16,40,14.30
2012,07,03,16,41,14.30
2012,07,03,16,42,14.30
2012,07,03,16,43,14.30
2012,07,03,16,44,14.30
2012,07,03,16,45,14.30
2012,07,03,16,46,14.30
2012,07,03,16,47,14.30
2012,07,03,16,48,14.40
2012,07,03,16,49,14.40
2012,07,03,16,50,14.40
2012,07,03,16,51,14.40
2012,07,03,16,52,14.40
2012,07,03,16,53,14.40
2012,07,03,16,54,14.40
2012,07,03,16,55,14.40
2012,07,03,16,56,14.40
2012,07,03,16,57,14.40
2012,07,03,16,58,14.40
2012,07,03,16,59,14.40
2012,07,03,17,00,14.40
2012,07,03,17,01,14.40
2012,07,03,17,02,14.40
2012,07,03,17,03,14.40
2012,07,03,17,04,14.40
2012,07,03,17,05,14.30
2012,07,03,17,06,14.30
2012,07,03,17,07,14.30
2012,07,03,17,08,14.30
2012,07,03,17,09,14.30
2012,07,03,17,10,14.30
2012,07,03,17,11,14.30
2012,07,03,17,12,14.30
2012,07,03,17,13,14.30
2012,07,03,17,14,14.30
2012,07,03,17,15,14.30
2012,07,03,17,16,14.30
2012,07,03,17,17,14.30
2012,07,03,17,18,14.30
2012,07,03,17,19,14.30